THOR ABLESTAR DEB *

Satellite information

Favourite Embed

Satellite Type and Status

DEBRISIN ORBIT

Key statistics

Satellite THOR ABLESTAR DEB * at a glance.

Uptime

23543

Days in orbit

Revolutions

≈ 13.8

Per day

Orbit

LEO

Low Earth Orbit

Inclination

66.4

Latest

Satellite identification and parameters

Extended collection of information and parameters for THOR ABLESTAR DEB *.

Object identification

Identified? True

Debris? True

Object name: THOR ABLESTAR DEB *

International designator: 1961-015KT

Object number (NORAD): 13502

Object ID (CCSDS): 13502

Country: UNITED STATES OF AMERICA (US)

Current information (Y/N): Y

RCS size: SMALL

Orbital parameters

Period: 104.701 minutes

Inclination: 66.4459 deg

SMA: 7358.601 km

Apoapsis: 1161.418 km

Periapsis: 799.514 km

RAAN: 267.4423 deg

Eccentricy: 0.02459052

Argument of periapsis: 346.6059 deg

Mean anomaly: 163.1177 deg

Mean motion: 13.75339469 rev/day

Mean motion (dot): 0.00009557 rev/day2

B* drag term: 0.0080326043 1/REarth

Two-line elements (TLE)

Creation date: Dec. 12, 2025, 10:14 a.m.

Reference frame: TEME

Reference center: EARTH

Epoch: Dec. 12, 2025, 5:22 a.m. UTC

TLE line 0: 0 THOR ABLESTAR DEB *

TLE line 1: 1 13502U 61015KT 25346.22392363 .00009557 00000-0 80326-2 0 9991

TLE line 2: 2 13502 66.4459 267.4423 0245905 346.6059 163.1177 13.75339469125041

Live tracking on map

Real-time ground track for satellite THOR ABLESTAR DEB *.

In-orbit conjunctions

A list of the most updated potential collisions computed for object THOR ABLESTAR DEB *.

Target Orbit TCA Probability of collision Miss distance Type
FENGYUN 1C DEB SSO 2025-05-15 22:05:10 0.0001176145 84.0 (m) DEBRIS
CZ-6A DEB LEO 2024-11-13 10:06:02 0.0001694649 367.0 (m) DEBRIS

Associated space launch

THOR ABLESTAR DEB * was lifted into orbit during the mission ‘Thor DM-21 Ablestar | Transit 4A & Injun-1 & Solrad 3’, on board a Thor DM-21 Ablestar space rocket.

The launch took place on June 29, 1961, 4:23 a.m. from Space Launch Complex 17B.

For more information about the launch, click the button.

Launch to space Thor DM-21 Ablestar | Transit 4A & Injun-1 & Solrad 3
Thor DM-21 Ablestar | Transit 4A & Injun-1 & Solrad 3

Agency: N/A

Status: Launch Successful

Launch date: June 29, 1961, 4:23 a.m. UTC

Rocket: Thor DM-21 Ablestar

Launch pad: Space Launch Complex 17B

Location: Cape Canaveral SFS, FL, USA

...

Latest news about this satellite

There are no fresh news available about this satellite. Check back as we update our databases every day.


Newsletter sign-up

Weekly statistics, charts and insights to help you stay on top of the space industry.